Track STARLINK-70 now! 10-day predictions STARLINK-70 is classified as:
1 44281U 19029AY 21025.30061396 .00008164 00000-0 18304-3 0 9996 2 44281 52.9984 239.2562 0002310 129.2003 230.9207 15.44353148 93238